Gastonia, NC

12:24 AM EDT on July 23, 2017 (GMT -0400)
Gastonia Municipal

Weather History for KAKH - February, 2014

Change the Weather History Date:

Sunday, February 9, 2014

  Actual Average (KCLT) Record (KCLT)
Temperature  
Mean Temperature 48 °F -  
Max Temperature 60 °F 49 °F 77 °F (1994)
Min Temperature 36 °F 28 °F 6 °F (1895)
Degree Days  
Heating Degree Days 17    
Moisture  
Dew Point 36 °F    
Average Humidity 67    
Maximum Humidity 93    
Minimum Humidity 41    
Precipitation  
Precipitation 0.00 in - - ()
Sea Level Pressure  
Sea Level Pressure 30.06 in    
Wind  
Wind Speed 2 mph (SW)    
Max Wind Speed 15 mph    
Max Gust Speed 23 mph    
Visibility 9 miles    
Events      
Averages and records for this station are not official NWS values.
T = Trace of Precipitation, MM = Missing Value Source: NWS Daily Summary

Daily Weather History Graph

Daily Weather History Graph

Search for Another Location

Airport or City:

Trip Planner

Search our weather history database for the weather conditions in past years. The results will help you decide how hot, cold, wet, or windy it might be!

Date:

Astronomy

Feb. 09, 2014 Rise Set
Actual Time 7:16 AM EST 6:01 PM EST
Civil Twilight 6:50 AM EST 6:27 PM EST
Nautical Twilight 6:20 AM EST 6:57 PM EST
Astronomical Twilight 5:51 AM EST 7:27 PM EST
Moon 1:43 PM EST (2/9) 3:17 AM EST (2/9)
Length of Visible Light 11h 36m
Length of Day
10h 44m
Waxing Gibbous, 77% of the Moon is Illuminated
Feb 9
Waxing Gibbous
Feb 14
Full
Feb 22
Last Quarter
Mar 1
New
Mar 8
First Quarter

Hourly Weather History & Observations

Time (EST) Temp. Windchill Dew Point Humidity Pressure Visibility Wind Dir Wind Speed Gust Speed Precip Events Conditions
12:54 AM 44.1 °F - 35.1 °F 71% 30.14 in 10.0 mi Calm Calm - N/A   Overcast
1:54 AM 43.0 °F - 35.1 °F 74% 30.12 in 10.0 mi Calm Calm - N/A   Overcast
2:54 AM 39.0 °F - 34.0 °F 82% 30.09 in 9.0 mi Calm Calm - N/A   Partly Cloudy
3:54 AM 37.9 °F - 34.0 °F 86% 30.09 in 8.0 mi Calm Calm - N/A   Clear
4:54 AM 37.9 °F 35.5 °F 35.1 °F 89% 30.08 in 8.0 mi SSE 3.5 mph - N/A   Clear
5:54 AM 37.9 °F - 35.1 °F 89% 30.10 in 7.0 mi Calm Calm - N/A   Clear
6:54 AM 36.0 °F - 34.0 °F 93% 30.10 in 6.0 mi Calm Calm - N/A   Clear
7:54 AM 37.0 °F - 35.1 °F 93% 30.11 in 4.0 mi Calm Calm - N/A   Overcast
8:54 AM 39.9 °F - 36.0 °F 86% 30.13 in 6.0 mi Calm Calm - N/A   Mostly Cloudy
9:54 AM 41.0 °F - 36.0 °F 82% 30.13 in 7.0 mi Calm Calm - N/A   Overcast
10:54 AM 46.0 °F 44.8 °F 36.0 °F 68% 30.11 in 10.0 mi Variable 3.5 mph - N/A   Overcast
11:54 AM 52.0 °F - 36.0 °F 54% 30.08 in 10.0 mi SSW 9.2 mph - N/A   Partly Cloudy
12:54 PM 53.1 °F - 36.0 °F 52% 30.08 in 10.0 mi WSW 15.0 mph 23.0 mph N/A   Mostly Cloudy
1:54 PM 57.0 °F - 37.0 °F 47% 30.01 in 10.0 mi Variable 5.8 mph - N/A   Clear
2:54 PM 59.0 °F - 36.0 °F 42% 29.98 in 10.0 mi SW 11.5 mph 16.1 mph N/A   Clear
3:54 PM 60.1 °F - 36.0 °F 41% 29.95 in 10.0 mi SSW 9.2 mph - N/A   Clear
4:54 PM 60.1 °F - 36.0 °F 41% 29.96 in 10.0 mi West 5.8 mph - N/A   Clear
5:54 PM 57.9 °F - 36.0 °F 44% 30.00 in 10.0 mi WSW 8.1 mph - N/A   Partly Cloudy
6:54 PM 54.0 °F - 36.0 °F 51% 30.02 in 10.0 mi Calm Calm - N/A   Clear
7:54 PM 53.1 °F - 36.0 °F 52% 30.03 in 10.0 mi Variable 3.5 mph - N/A   Clear
8:54 PM 52.0 °F - 37.0 °F 57% 30.03 in 10.0 mi SSW 3.5 mph - N/A   Clear
9:54 PM 50.0 °F - 37.0 °F 61% 30.06 in 10.0 mi Calm Calm - N/A   Clear
10:54 PM 44.1 °F - 35.1 °F 71% 30.05 in 10.0 mi Calm Calm - N/A   Clear
11:54 PM 43.0 °F - 35.1 °F 74% 30.03 in 10.0 mi Calm Calm - N/A   Clear